Location: Nairn
(57.5833°N, 3.8667°W)
Time: 06:57:10
(UTC+00:00)

Altair - Visible Passes

Search period start: 04 December 2023 00:00
Search period end: 14 December 2023 00:00
Orbit: 1501 x 1682 km, 47.2° (Epoch: 03 December)

Date Brightness Start Highest point End Pass type
(mag) Time Alt. Az. Time Alt. Az. Time Alt. Az.
04 Dec 10.1 07:36:02 10° S 07:41:47 18° SE 07:47:27 10° E visible
05 Dec 10.1 07:11:23 10° SSE 07:16:46 17° SE 07:22:04 10° E visible
06 Dec 10.1 06:46:50 10° SSE 06:51:46 15° SE 06:56:38 10° E visible
07 Dec 10.1 06:22:21 10° SSE 06:26:46 14° SE 06:31:07 10° ESE visible
08 Dec 10.1 05:58:01 10° SSE 06:01:47 13° SE 06:05:30 10° ESE visible
09 Dec 10.1 05:33:53 10° SE 05:36:48 12° SE 05:39:41 10° ESE visible
09 Dec 9.4 07:30:57 10° SSW 07:38:56 30° SSE 07:46:43 10° E visible
10 Dec 10.1 05:10:15 10° SE 05:11:49 10° SE 05:13:22 10° ESE visible
10 Dec 9.4 07:06:00 10° SSW 07:13:52 29° SSE 07:21:31 10° E visible
11 Dec 9.4 06:41:05 10° SSW 06:48:49 28° SE 06:56:20 10° E visible
12 Dec 9.4 06:16:10 10° SSW 06:23:45 26° SE 06:31:08 10° E visible
13 Dec 9.4 05:51:17 10° SSW 05:58:41 25° SE 06:05:54 10° E visible
13 Dec 8.8 07:52:42 10° SW 08:01:37 42° SSE 08:10:13 10° E visible
